Homestead AFB, FL

10:49 PM EDT on August 18, 2017 (GMT -0400)
Dade County-Homestead Regional

Weather History for KHST - June, 2013

Change the Weather History Date:

Friday, June 14, 2013

  Actual Average Record
Temperature  
Mean Temperature 81 °F -  
Max Temperature 90 °F 88 °F 96 °F (1952)
Min Temperature 72 °F 70 °F 63 °F (1960)
Cooling Degree Days 16    
Growing Degree Days 31 (Base 50)    
Moisture  
Dew Point 73 °F    
Average Humidity 77    
Maximum Humidity 98    
Minimum Humidity 55    
Precipitation  
Precipitation 0.00 in - - ()
Sea Level Pressure  
Sea Level Pressure 29.96 in    
Wind  
Wind Speed 5 mph (SW)    
Max Wind Speed 14 mph    
Max Gust Speed 22 mph    
Visibility 10 miles    
Events Rain , Thunderstorm    
Averages and records for this station are not official NWS values.
T = Trace of Precipitation, MM = Missing Value Source: NWS Daily Summary

Daily Weather History Graph

Daily Weather History Graph

Search for Another Location

Airport or City:

Trip Planner

Search our weather history database for the weather conditions in past years. The results will help you decide how hot, cold, wet, or windy it might be!

Date:

Astronomy

Jun. 14, 2013 Rise Set
Actual Time 6:30 AM EDT 8:13 PM EDT
Civil Twilight 6:04 AM EDT 8:39 PM EDT
Nautical Twilight 5:33 AM EDT 9:10 PM EDT
Astronomical Twilight 5:00 AM EDT 9:43 PM EDT
Moon 11:36 AM EDT (6/14) No Moon Set
Length of Visible Light 14h 34m
Length of Day
13h 43m
Waxing Crescent, 30% of the Moon is Illuminated
Jun 14
Waxing Crescent
Jun 16
First Quarter
Jun 23
Full
Jun 30
Last Quarter
Jul 8
New

Hourly Weather History & Observations

Time (EDT) Temp. Heat Index Dew Point Humidity Pressure Visibility Wind Dir Wind Speed Gust Speed Precip Events Conditions
12:58 AM 75.9 °F - 74.1 °F 94% 30.00 in 10.0 mi SSE 3.5 mph - N/A   Clear
1:58 AM 75.6 °F - 73.2 °F 92% 29.97 in 10.0 mi Calm Calm - N/A   Clear
2:58 AM 74.7 °F - 73.0 °F 95% 29.98 in 10.0 mi Calm Calm - N/A   Clear
3:58 AM 74.3 °F - 71.8 °F 92% 29.96 in 10.0 mi NW 3.5 mph - N/A   Clear
4:58 AM 73.9 °F - 72.7 °F 96% 29.94 in 10.0 mi Calm Calm - N/A   Clear
5:58 AM 73.0 °F - 71.8 °F 96% 29.94 in 10.0 mi Calm Calm - N/A   Clear
6:58 AM 72.7 °F - 72.1 °F 98% 29.95 in 10.0 mi WNW 1.2 mph - N/A   Clear
7:58 AM 77.0 °F - 73.4 °F 89% 29.96 in 10.0 mi West 5.8 mph - N/A   Clear
8:58 AM 82.4 °F 88.2 °F 73.4 °F 74% 29.97 in 10.0 mi WSW 6.9 mph - N/A   Clear
9:58 AM 84.2 °F 89.6 °F 71.6 °F 66% 29.98 in 10.0 mi WSW 13.8 mph - N/A   Clear
10:58 AM 86.0 °F 91.8 °F 71.6 °F 62% 29.98 in 10.0 mi WSW 13.8 mph - N/A   Clear
11:58 AM 87.8 °F 92.6 °F 69.8 °F 55% 29.99 in 10.0 mi WSW 11.5 mph - N/A   Clear
12:58 PM 87.8 °F 93.8 °F 71.6 °F 58% 29.97 in 10.0 mi SW 13.8 mph - N/A   Scattered Clouds
1:58 PM 88.3 °F 95.4 °F 72.5 °F 59% 29.96 in 10.0 mi SSW 6.9 mph - N/A   Scattered Clouds
2:58 PM 90.3 °F 98.7 °F 73.2 °F 57% 29.93 in 10.0 mi WSW 10.4 mph - N/A   Scattered Clouds
3:58 PM 87.8 °F 96.6 °F 74.1 °F 64% 29.92 in 10.0 mi SSW 11.5 mph - N/A   Partly Cloudy
4:43 PM 86.0 °F 95.1 °F 75.2 °F 70% 29.92 in 10.0 mi SSW 10.4 mph - N/A Rain Light Rain
4:56 PM 80.6 °F 83.9 °F 69.8 °F 70% 29.92 in 10.0 mi South 12.7 mph 21.9 mph N/A   Partly Cloudy
4:58 PM 80.8 °F 84.2 °F 70.2 °F 70% 29.93 in 10.0 mi South 11.5 mph 21.9 mph 0.00 in   Partly Cloudy
5:08 PM 80.6 °F 85.4 °F 73.4 °F 79% 29.92 in 10.0 mi SSE 9.2 mph - N/A Rain Light Rain
5:23 PM 84.2 °F 94.1 °F 77.0 °F 79% 29.92 in 10.0 mi SSE 9.2 mph - N/A Thunderstorm Clear
5:58 PM 84.6 °F 93.9 °F 76.1 °F 76% 29.92 in 10.0 mi SSW 8.1 mph - 0.00 in   Scattered Clouds
6:58 PM 84.4 °F 91.3 °F 73.6 °F 70% 29.93 in 10.0 mi SW 6.9 mph - N/A Thunderstorm Scattered Clouds
7:58 PM 82.8 °F 89.2 °F 73.9 °F 75% 29.95 in 10.0 mi SSW 8.1 mph - N/A   Clear
8:58 PM 81.3 °F 86.5 °F 73.6 °F 77% 29.99 in 10.0 mi Calm Calm - N/A   Partly Cloudy
9:58 PM 79.3 °F - 73.6 °F 82% 29.97 in 10.0 mi SSW 5.8 mph - N/A   Clear
10:58 PM 78.4 °F - 73.4 °F 84% 30.00 in 10.0 mi SW 3.5 mph - N/A   Clear
11:58 PM 76.8 °F - 73.8 °F 90% 29.99 in 10.0 mi SSW 3.5 mph - N/A   Clear